Fort Lewis, WA

10:07 AM PDT on April 26, 2017 (GMT -0700)
Gray Army Air Field

Weather History for KGRF - October, 2013

Change the Weather History Date:

Friday, October 4, 2013

  Actual Average Record
Temperature  
Mean Temperature 48 °F -  
Max Temperature 62 °F 63 °F 75 °F (2001)
Min Temperature 33 °F 44 °F 32 °F (2012)
Degree Days  
Heating Degree Days 18    
Moisture  
Dew Point 40 °F    
Average Humidity 94    
Maximum Humidity 100    
Minimum Humidity 55    
Precipitation  
Precipitation 0.00 in - - ()
Sea Level Pressure  
Sea Level Pressure 30.45 in    
Wind  
Wind Speed 3 mph (SE)    
Max Wind Speed 7 mph    
Max Gust Speed -    
Visibility 4 miles    
Events Fog , Rain    
Averages and records for this station are not official NWS values.
T = Trace of Precipitation, MM = Missing Value Source: NWS Daily Summary

Daily Weather History Graph

Daily Weather History Graph

Search for Another Location

Airport or City:

Trip Planner

Search our weather history database for the weather conditions in past years. The results will help you decide how hot, cold, wet, or windy it might be!

Date:

Astronomy

Oct. 04, 2013 Rise Set
Actual Time 7:13 AM PDT 6:43 PM PDT
Civil Twilight 6:43 AM PDT 7:13 PM PDT
Nautical Twilight 6:07 AM PDT 7:48 PM PDT
Astronomical Twilight 5:32 AM PDT 8:24 PM PDT
Moon 6:56 AM PDT (10/4) 6:26 PM PDT (10/4)
Length of Visible Light 12h 30m
Length of Day
11h 29m
Waning Crescent, 0% of the Moon is Illuminated
Oct 4
Waning Crescent
Oct 4
New
Oct 11
First Quarter
Oct 18
Full
Oct 26
Last Quarter

Hourly Weather History & Observations

Time (PDT) Temp. Windchill Dew Point Humidity Pressure Visibility Wind Dir Wind Speed Gust Speed Precip Events Conditions
12:00 AM 41.0 °F 36.4 °F 39.2 °F 93% 30.45 in 0.5 mi SE 6.9 mph - N/A Fog Fog
12:01 AM 41.0 °F 37.1 °F 39.2 °F 93% 30.45 in 0.5 mi SE 5.8 mph - N/A Fog Fog
12:06 AM 41.0 °F 39.0 °F 41.0 °F 100% 30.45 in 0.2 mi SE 3.5 mph - N/A Fog Fog
12:13 AM 41.0 °F - 41.0 °F 100% 30.45 in 0.5 mi ESE 2.3 mph - N/A Fog Fog
12:16 AM 41.0 °F - 41.0 °F 100% 30.45 in 0.8 mi East 2.3 mph - N/A   Mist
12:17 AM 41.0 °F - 41.0 °F 100% 30.45 in 1.0 mi East 2.3 mph - N/A   Scattered Clouds
12:21 AM 41.0 °F - 41.0 °F 100% 30.45 in 1.2 mi East 2.3 mph - N/A   Scattered Clouds
12:31 AM 41.0 °F - 39.2 °F 93% 30.45 in 1.0 mi SE 2.3 mph - N/A   Mostly Cloudy
12:43 AM 41.0 °F 39.0 °F 39.2 °F 93% 30.45 in 1.2 mi ESE 3.5 mph - N/A   Scattered Clouds
12:53 AM 41.0 °F 39.0 °F 39.2 °F 93% 30.45 in 0.5 mi SE 3.5 mph - N/A Fog Fog
12:58 AM 41.0 °F - 39.2 °F 93% 30.45 in 0.5 mi ESE 2.3 mph - N/A Fog Fog
1:14 AM 39.2 °F 37.0 °F 39.2 °F 100% 30.45 in 0.8 mi SE 3.5 mph - N/A   Mist
1:24 AM 39.2 °F 37.0 °F 39.2 °F 100% 30.45 in 0.5 mi SE 3.5 mph - N/A Fog Fog
1:29 AM 39.2 °F 37.0 °F 39.2 °F 100% 30.45 in 0.8 mi SE 3.5 mph - N/A   Mist
1:30 AM 39.2 °F 37.0 °F 39.2 °F 100% 30.45 in 0.8 mi SE 3.5 mph - N/A   Mist
1:35 AM 39.2 °F 37.0 °F 39.2 °F 100% 30.45 in 0.8 mi SE 3.5 mph - N/A   Mist
1:40 AM 39.2 °F 37.0 °F 39.2 °F 100% 30.45 in 1.0 mi SE 3.5 mph - N/A   Mist
1:45 AM 39.2 °F 37.0 °F 37.4 °F 93% 30.45 in 1.0 mi SE 3.5 mph - N/A   Clear
1:50 AM 37.4 °F 33.8 °F 37.4 °F 100% 30.46 in 1.2 mi SE 4.6 mph - N/A   Clear
1:51 AM 37.4 °F 34.9 °F 37.4 °F 100% 30.46 in 1.5 mi SE 3.5 mph - N/A   Clear
1:56 AM 37.4 °F 32.8 °F 37.4 °F 100% 30.46 in 2.5 mi SE 5.8 mph - N/A   Clear
1:58 AM 38.3 °F 34.8 °F 37.9 °F 99% 30.48 in 2.0 mi SE 4.6 mph - 0.00 in   Clear
2:03 AM 39.2 °F 35.9 °F 37.4 °F 93% 30.46 in 1.0 mi SE 4.6 mph - N/A   Clear
2:08 AM 39.2 °F 37.0 °F 37.4 °F 93% 30.46 in 1.0 mi SE 3.5 mph - N/A   Clear
2:09 AM 39.2 °F 35.9 °F 37.4 °F 93% 30.46 in 1.0 mi SE 4.6 mph - N/A   Clear
2:14 AM 37.4 °F 33.8 °F 37.4 °F 100% 30.46 in 2.0 mi SE 4.6 mph - N/A   Clear
2:19 AM 37.4 °F - 37.4 °F 100% 30.46 in 4.0 mi ESE 2.3 mph - N/A   Clear
2:25 AM 37.4 °F 34.9 °F 37.4 °F 100% 30.46 in 6.0 mi SE 3.5 mph - N/A   Clear
2:26 AM 37.4 °F - 37.4 °F 100% 30.46 in 5.0 mi SE 2.3 mph - N/A   Partly Cloudy
2:35 AM 37.4 °F 34.9 °F 37.4 °F 100% 30.46 in 5.0 mi SE 3.5 mph - N/A   Partly Cloudy
2:36 AM 37.4 °F 34.9 °F 37.4 °F 100% 30.46 in 6.0 mi SE 3.5 mph - N/A   Partly Cloudy
2:47 AM 37.4 °F 33.8 °F 37.4 °F 100% 30.46 in 4.0 mi SE 4.6 mph - N/A   Partly Cloudy
2:52 AM 37.4 °F 32.8 °F 37.4 °F 100% 30.46 in 2.5 mi SE 5.8 mph - N/A   Partly Cloudy
2:53 AM 37.4 °F 32.8 °F 37.4 °F 100% 30.46 in 1.8 mi SE 5.8 mph - N/A   Partly Cloudy
2:58 AM 37.8 °F 34.2 °F 37.6 °F 99% 30.48 in 1.0 mi SE 4.6 mph - 0.00 in   Clear
3:03 AM 37.4 °F 34.9 °F 37.4 °F 100% 30.46 in 1.0 mi SE 3.5 mph - N/A   Clear
3:08 AM 37.4 °F - 37.4 °F 100% 30.46 in 1.2 mi ESE 2.3 mph - N/A   Clear
3:13 AM 37.4 °F 34.9 °F 37.4 °F 100% 30.46 in 1.8 mi SE 3.5 mph - N/A   Clear
3:18 AM 37.4 °F - 37.4 °F 100% 30.45 in 5.0 mi Calm Calm - N/A   Clear
3:19 AM 37.4 °F - 37.4 °F 100% 30.46 in 8.0 mi Calm Calm - N/A   Clear
3:58 AM 36.0 °F - 35.8 °F 99% 30.48 in 10.0 mi SE 1.2 mph - 0.00 in   Clear
4:58 AM 35.8 °F - 35.6 °F 99% 30.47 in 10.0 mi SSE 2.3 mph - N/A   Clear
5:15 AM 35.6 °F 32.8 °F 35.6 °F 100% 30.45 in 10.0 mi SE 3.5 mph - N/A   Partly Cloudy
5:24 AM 35.6 °F 31.7 °F 35.6 °F 100% 30.45 in 2.5 mi SE 4.6 mph - N/A   Scattered Clouds
5:34 AM 35.6 °F - 35.6 °F 100% 30.45 in 0.8 mi East 2.3 mph - N/A   Mist
5:39 AM 35.6 °F - 35.6 °F 100% 30.45 in 1.2 mi ENE 1.2 mph - N/A   Partly Cloudy
5:44 AM 35.6 °F - 35.6 °F 100% 30.46 in 1.8 mi Calm Calm - N/A   Scattered Clouds
5:57 AM 35.6 °F - 35.6 °F 100% 30.48 in 5.0 mi ESE 1.2 mph - N/A   Scattered Clouds
6:55 AM 33.8 °F - 33.8 °F 100% 30.48 in 3.0 mi South 2.3 mph - N/A   Partly Cloudy
7:23 AM 33.8 °F - 33.8 °F 100% 30.47 in 2.0 mi Calm Calm - N/A   Mostly Cloudy
7:55 AM 34.5 °F - 34.2 °F 99% 30.48 in 2.0 mi Calm Calm - N/A   Mostly Cloudy
8:57 AM 39.2 °F - 39.2 °F 100% 30.49 in 2.5 mi Calm Calm - N/A   Mostly Cloudy
9:11 AM 41.0 °F - 41.0 °F 100% 30.47 in 7.0 mi Calm Calm - N/A   Mostly Cloudy
9:58 AM 44.6 °F - 42.3 °F 91% 30.49 in 10.0 mi Variable 1.2 mph - N/A   Clear
10:58 AM 48.6 °F - 44.2 °F 85% 30.49 in 10.0 mi Variable 2.3 mph - N/A   Clear
11:58 AM 52.5 °F - 45.5 °F 77% 30.48 in 10.0 mi North 2.3 mph - 0.00 in Rain Light Rain
12:33 PM 55.4 °F - 44.6 °F 67% 30.44 in 10.0 mi Variable 3.5 mph - N/A   Clear
12:56 PM 55.4 °F - 44.6 °F 67% 30.47 in 10.0 mi Variable 3.5 mph - N/A   Clear
1:58 PM 57.2 °F - 46.4 °F 67% 30.44 in 10.0 mi Variable 3.5 mph - N/A   Mostly Cloudy
2:58 PM 61.5 °F - 45.7 °F 56% 30.42 in 10.0 mi Calm Calm - 0.00 in   Clear
4:04 PM 62.2 °F - 45.9 °F 55% 30.41 in 7.0 mi West 4.6 mph - 0.00 in   Partly Cloudy
4:57 PM 61.5 °F - 46.0 °F 57% 30.40 in 7.0 mi Variable 2.3 mph - N/A   Clear
5:55 PM 60.6 °F - 46.6 °F 60% 30.39 in 7.0 mi NW 2.3 mph - N/A   Clear
6:58 PM 54.7 °F - 48.7 °F 80% 30.39 in 7.0 mi SSE 2.3 mph - N/A   Clear
7:59 PM 49.6 °F - 47.3 °F 92% 30.38 in 7.0 mi SSE 2.3 mph - N/A   Clear
8:59 PM 51.1 °F - 46.9 °F 86% 30.38 in 7.0 mi SE 3.5 mph - N/A   Clear
9:58 PM 47.5 °F - 46.9 °F 98% 30.39 in 10.0 mi East 1.2 mph - 0.00 in Rain Light Rain
10:58 PM 45.1 °F - 44.6 °F 98% 30.38 in 10.0 mi Calm Calm - 0.00 in   Clear
11:58 PM 44.4 °F 42.9 °F 43.9 °F 98% 30.37 in 10.0 mi SE 3.5 mph - N/A   Clear